| time (UTC) | temp F | wind direction | speed MPH | gust MPH | rain 1hr in | rain 24hr in | rain mn in | humidity % | barometer mb |
| 20260507220258 | 57 | 292 | 0.0 | 0.0 | 0.00 | 0.00 | 0.00 | 87 | 1042.5 |
| 20260507215438 | 57 | 292 | 0.0 | 0.0 | 0.00 | 0.00 | 0.00 | 87 | 1042.5 |
| 20260507214618 | 57 | 292 | 0.0 | 0.0 | 0.00 | 0.00 | 0.00 | 87 | 1042.5 |
| 20260507213758 | 57 | 292 | 0.0 | 0.0 | 0.00 | 0.00 | 0.00 | 87 | 1042.5 |
| 20260507212938 | 57 | 292 | 0.0 | 0.0 | 0.00 | 0.00 | 0.00 | 86 | 1042.5 |
| 20260507212118 | 57 | 292 | 0.0 | 0.0 | 0.00 | 0.00 | 0.00 | 86 | 1042.5 |
| 20260507211258 | 58 | 292 | 0.0 | 0.0 | 0.00 | 0.00 | 0.00 | 86 | 1042.5 |
| 20260507210438 | 58 | 292 | 0.0 | 0.0 | 0.00 | 0.00 | 0.00 | 85 | 1042.5 |
| 20260507205618 | 59 | 292 | 0.0 | 0.0 | 0.00 | 0.00 | 0.00 | 85 | 1042.5 |
| 20260507204802 | 59 | 292 | 0.0 | 0.0 | 0.00 | 0.00 | 0.00 | 84 | 1042.5 |
| 20260507203938 | 60 | 292 | 0.0 | 0.0 | 0.00 | 0.00 | 0.00 | 84 | 1042.5 |
| 20260507203118 | 60 | 292 | 0.0 | 0.0 | 0.00 | 0.00 | 0.00 | 86 | 1042.5 |
| 20260507202301 | 59 | 292 | 0.0 | 0.0 | 0.00 | 0.00 | 0.00 | 85 | 1042.5 |
| 20260507201438 | 59 | 292 | 0.0 | 0.0 | 0.00 | 0.00 | 0.00 | 84 | 1042.5 |
| 20260507200618 | 59 | 292 | 0.0 | 0.0 | 0.00 | 0.00 | 0.00 | 85 | 1042.5 |
| 20260507195758 | 59 | 292 | 0.0 | 0.0 | 0.00 | 0.00 | 0.00 | 84 | 1042.5 |
| 20260507194938 | 59 | 292 | 0.0 | 0.0 | 0.00 | 0.00 | 0.00 | 83 | 1042.5 |
| 20260507194118 | 60 | 292 | 0.0 | 0.0 | 0.00 | 0.00 | 0.00 | 83 | 1042.5 |
| 20260507193258 | 60 | 292 | 0.0 | 0.0 | 0.00 | 0.00 | 0.00 | 82 | 1042.5 |
| 20260507192438 | 60 | 292 | 0.0 | 0.0 | 0.00 | 0.00 | 0.00 | 81 | 1042.5 |
| 20260507191618 | 61 | 292 | 0.0 | 0.0 | 0.00 | 0.00 | 0.00 | 81 | 1042.5 |
| 20260507190758 | 60 | 292 | 0.0 | 0.0 | 0.00 | 0.00 | 0.00 | 81 | 1042.5 |
| 20260507185938 | 61 | 292 | 0.0 | 0.0 | 0.00 | 0.00 | 0.00 | 81 | 1042.5 |
| 20260507185118 | 61 | 292 | 0.0 | 0.0 | 0.00 | 0.00 | 0.00 | 80 | 1042.5 |
| 20260507184258 | 62 | 292 | 0.0 | 0.0 | 0.00 | 0.00 | 0.00 | 79 | 1042.5 |
| 20260507183438 | 62 | 292 | 0.0 | 0.0 | 0.00 | 0.00 | 0.00 | 78 | 1042.5 |
| 20260507182618 | 62 | 292 | 0.0 | 0.0 | 0.00 | 0.00 | 0.00 | 77 | 1042.5 |
| 20260507181758 | 63 | 292 | 0.0 | 0.0 | 0.00 | 0.00 | 0.00 | 77 | 1042.5 |
| 20260507180938 | 64 | 292 | 0.0 | 0.0 | 0.00 | 0.00 | 0.00 | 76 | 1042.5 |
| 20260507180118 | 64 | 292 | 0.0 | 0.0 | 0.00 | 0.00 | 0.00 | 75 | 1042.5 |
| 20260507175258 | 65 | 292 | 0.0 | 0.0 | 0.00 | 0.00 | 0.00 | 74 | 1042.5 |
| 20260507174438 | 65 | 292 | 0.0 | 0.0 | 0.00 | 0.00 | 0.00 | 72 | 1042.5 |
| 20260507173618 | 66 | 292 | 0.0 | 0.0 | 0.00 | 0.00 | 0.00 | 70 | 1042.5 |
| 20260507172758 | 66 | 292 | 0.0 | 0.0 | 0.00 | 0.00 | 0.00 | 71 | 1042.5 |
| 20260507171938 | 66 | 292 | 0.0 | 0.0 | 0.00 | 0.00 | 0.00 | 71 | 1042.5 |
| 20260507171118 | 67 | 292 | 0.0 | 0.0 | 0.00 | 0.00 | 0.00 | 69 | 1042.5 |
| 20260507170258 | 67 | 292 | 0.0 | 0.0 | 0.00 | 0.00 | 0.00 | 67 | 1042.5 |
| 20260507165438 | 67 | 292 | 0.0 | 0.0 | 0.00 | 0.00 | 0.00 | 68 | 1042.5 |
| 20260507164618 | 67 | 292 | 0.0 | 0.0 | 0.00 | 0.00 | 0.00 | 65 | 1042.5 |
| 20260507163758 | 68 | 292 | 0.0 | 0.0 | 0.00 | 0.00 | 0.00 | 64 | 1042.5 |
| 20260507162938 | 68 | 292 | 0.0 | 0.0 | 0.00 | 0.00 | 0.00 | 64 | 1042.5 |
| 20260507162118 | 69 | 292 | 0.0 | 0.0 | 0.00 | 0.00 | 0.00 | 62 | 1042.5 |
| 20260507161258 | 69 | 292 | 0.0 | 0.0 | 0.00 | 0.00 | 0.00 | 62 | 1042.5 |
| 20260507160438 | 70 | 292 | 0.0 | 0.0 | 0.00 | 0.00 | 0.00 | 59 | 1042.5 |
| 20260507155618 | 70 | 301 | 0.0 | 0.0 | 0.00 | 0.00 | 0.00 | 62 | 1042.5 |
| 20260507154758 | 69 | 292 | 0.0 | 0.0 | 0.00 | 0.00 | 0.00 | 63 | 1042.5 |
| 20260507153938 | 69 | 292 | 0.0 | 0.0 | 0.00 | 0.00 | 0.00 | 63 | 1042.5 |
| 20260507153118 | 69 | 292 | 0.0 | 0.0 | 0.00 | 0.00 | 0.00 | 60 | 1042.5 |
| 20260507152258 | 69 | 313 | 0.0 | 0.0 | 0.00 | 0.00 | 0.00 | 60 | 1042.5 |
| 20260507151438 | 70 | 292 | 0.0 | 0.0 | 0.00 | 0.00 | 0.00 | 59 | 1042.5 |
| 20260507150618 | 70 | 295 | 0.0 | 1.0 | 0.00 | 0.00 | 0.00 | 58 | 1042.5 |
| 20260507145758 | 71 | 292 | 0.0 | 0.0 | 0.00 | 0.00 | 0.00 | 58 | 1042.5 |
| 20260507144938 | 71 | 302 | 0.0 | 0.0 | 0.00 | 0.00 | 0.00 | 59 | 1042.5 |
| 20260507144118 | 72 | 248 | 0.0 | 0.0 | 0.00 | 0.00 | 0.00 | 58 | 1042.5 |
| 20260507143258 | 70 | 225 | 0.0 | 0.0 | 0.00 | 0.00 | 0.00 | 60 | 1042.5 |
| 20260507142438 | 70 | 225 | 0.0 | 0.0 | 0.00 | 0.00 | 0.00 | 61 | 1042.5 |
| 20260507141618 | 69 | 199 | 0.0 | 0.0 | 0.00 | 0.00 | 0.00 | 63 | 1042.5 |
| 20260507140758 | 69 | 202 | 0.0 | 0.0 | 0.00 | 0.00 | 0.00 | 65 | 1042.5 |
| 20260507135938 | 69 | 180 | 0.0 | 0.0 | 0.00 | 0.00 | 0.00 | 65 | 1042.5 |
| 20260507135118 | 69 | 180 | 0.0 | 0.0 | 0.00 | 0.00 | 0.00 | 65 | 1042.5 |
| 20260507134258 | 69 | 190 | 0.0 | 0.0 | 0.00 | 0.00 | 0.00 | 67 | 1042.5 |
| 20260507133439 | 69 | 174 | 0.0 | 0.0 | 0.00 | 0.00 | 0.00 | 68 | 1042.5 |
| 20260507132618 | 68 | 208 | 0.0 | 0.0 | 0.00 | 0.00 | 0.00 | 70 | 1042.5 |
| 20260507131758 | 68 | 156 | 0.0 | 0.0 | 0.00 | 0.00 | 0.00 | 71 | 1042.5 |
| 20260507130938 | 68 | 135 | 0.0 | 0.0 | 0.00 | 0.00 | 0.00 | 70 | 1042.5 |
| 20260507130118 | 69 | 150 | 0.0 | 0.0 | 0.00 | 0.00 | 0.00 | 68 | 1042.5 |
| 20260507125258 | 69 | 349 | 0.0 | 0.0 | 0.00 | 0.00 | 0.00 | 68 | 1042.5 |
| 20260507124438 | 69 | 315 | 0.0 | 0.0 | 0.00 | 0.00 | 0.00 | 66 | 1042.5 |
| 20260507123618 | 69 | 315 | 0.0 | 0.0 | 0.00 | 0.00 | 0.00 | 65 | 1042.5 |
| 20260507122758 | 69 | 315 | 0.0 | 0.0 | 0.00 | 0.00 | 0.00 | 63 | 1042.5 |
| 20260507121938 | 69 | 315 | 0.0 | 0.0 | 0.00 | 0.00 | 0.00 | 65 | 1042.5 |
| 20260507121118 | 70 | 338 | 0.0 | 0.0 | 0.00 | 0.00 | 0.00 | 66 | 1042.5 |
| 20260507120258 | 70 | 334 | 0.0 | 0.0 | 0.00 | 0.00 | 0.00 | 65 | 1042.5 |
| 20260507115438 | 70 | 338 | 0.0 | 0.0 | 0.00 | 0.00 | 0.00 | 64 | 1042.5 |
| 20260507114618 | 70 | 338 | 0.0 | 0.0 | 0.00 | 0.00 | 0.00 | 63 | 1042.5 |
| 20260507113758 | 69 | 326 | 1.0 | 3.0 | 0.00 | 0.00 | 0.00 | 62 | 1042.5 |
| 20260507112938 | 69 | 338 | 0.0 | 0.0 | 0.00 | 0.00 | 0.00 | 65 | 1042.5 |
| 20260507112118 | 69 | 338 | 0.0 | 0.0 | 0.00 | 0.00 | 0.00 | 68 | 1042.5 |
| 20260507111258 | 68 | 338 | 0.0 | 0.0 | 0.00 | 0.00 | 0.00 | 70 | 1042.5 |
| 20260507110438 | 67 | 338 | 0.0 | 0.0 | 0.00 | 0.00 | 0.00 | 69 | 1042.5 |
| 20260507105618 | 67 | 338 | 0.0 | 0.0 | 0.00 | 0.00 | 0.00 | 69 | 1042.5 |
| 20260507104758 | 67 | 338 | 0.0 | 0.0 | 0.00 | 0.00 | 0.00 | 70 | 1042.5 |
| 20260507103938 | 67 | 338 | 0.0 | 0.0 | 0.00 | 0.00 | 0.00 | 68 | 1042.5 |
| 20260507103118 | 67 | 315 | 0.0 | 0.0 | 0.00 | 0.00 | 0.00 | 66 | 1042.5 |
| 20260507102258 | 67 | 292 | 0.0 | 0.0 | 0.00 | 0.00 | 0.00 | 68 | 1042.5 |
| 20260507101438 | 67 | 315 | 0.0 | 0.0 | 0.00 | 0.00 | 0.00 | 67 | 1042.5 |
| 20260507100618 | 67 | 298 | 0.0 | 0.0 | 0.00 | 0.00 | 0.00 | 66 | 1042.5 |
| 20260507095758 | 67 | 302 | 0.0 | 0.0 | 0.00 | 0.00 | 0.00 | 64 | 1042.5 |
| 20260507094938 | 68 | 292 | 0.0 | 0.0 | 0.00 | 0.00 | 0.00 | 65 | 1042.5 |
| 20260507094118 | 69 | 292 | 0.0 | 0.0 | 0.00 | 0.00 | 0.00 | 62 | 1042.5 |
| 20260507093258 | 69 | 292 | 0.0 | 0.0 | 0.00 | 0.00 | 0.00 | 60 | 1042.5 |
| 20260507092438 | 70 | 292 | 0.0 | 0.0 | 0.00 | 0.00 | 0.00 | 59 | 1042.5 |
| 20260507091618 | 70 | 277 | 0.0 | 0.0 | 0.00 | 0.00 | 0.00 | 61 | 1042.5 |
| 20260507090758 | 69 | 220 | 0.0 | 0.0 | 0.00 | 0.00 | 0.00 | 60 | 1042.5 |
| 20260507085938 | 69 | 292 | 0.0 | 0.0 | 0.00 | 0.00 | 0.00 | 63 | 1042.5 |
| 20260507085118 | 69 | 292 | 0.0 | 0.0 | 0.00 | 0.00 | 0.00 | 64 | 1042.5 |
| 20260507084258 | 68 | 288 | 0.0 | 0.0 | 0.00 | 0.00 | 0.00 | 65 | 1042.5 |
| 20260507083438 | 68 | 284 | 0.0 | 0.0 | 0.00 | 0.00 | 0.00 | 64 | 1042.5 |
| 20260507082618 | 68 | 248 | 0.0 | 0.0 | 0.00 | 0.00 | 0.00 | 64 | 1042.5 |
| 20260507081758 | 68 | 248 | 0.0 | 0.0 | 0.00 | 0.00 | 0.00 | 63 | 1042.5 |
| 20260507080938 | 69 | 299 | 0.0 | 0.0 | 0.00 | 0.00 | 0.00 | 61 | 1042.5 |
| 20260507080118 | 69 | 292 | 0.0 | 0.0 | 0.00 | 0.00 | 0.00 | 62 | 1042.5 |
| 20260507075258 | 69 | 315 | 0.0 | 0.0 | 0.00 | 0.00 | 0.00 | 59 | 1042.5 |
| 20260507074438 | 69 | 356 | 0.0 | 0.0 | 0.00 | 0.00 | 0.00 | 59 | 1042.5 |
| 20260507073618 | 69 | 0 | 0.0 | 0.0 | 0.00 | 0.00 | 0.00 | 59 | 1042.5 |
| 20260507072758 | 69 | 338 | 0.0 | 0.0 | 0.00 | 0.00 | 0.00 | 58 | 1042.5 |
| 20260507071938 | 68 | 158 | 0.0 | 0.0 | 0.00 | 0.00 | 0.00 | 59 | 1042.5 |
| 20260507071118 | 67 | 90 | 0.0 | 0.0 | 0.00 | 0.00 | 0.00 | 61 | 1042.5 |
| 20260507070258 | 66 | 135 | 0.0 | 0.0 | 0.00 | 0.00 | 0.00 | 62 | 1042.5 |
| 20260507065438 | 66 | 135 | 0.0 | 0.0 | 0.00 | 0.00 | 0.00 | 61 | 1042.5 |
| 20260507064618 | 67 | 121 | 0.0 | 0.0 | 0.00 | 0.00 | 0.00 | 63 | 1042.5 |
| 20260507063758 | 66 | 110 | 0.0 | 0.0 | 0.00 | 0.00 | 0.00 | 65 | 1042.5 |
| 20260507062938 | 65 | 112 | 0.0 | 0.0 | 0.00 | 0.00 | 0.00 | 66 | 1042.5 |
| 20260507062118 | 65 | 133 | 0.0 | 0.0 | 0.00 | 0.00 | 0.00 | 66 | 1042.5 |
| 20260507061258 | 65 | 135 | 0.0 | 0.0 | 0.00 | 0.00 | 0.00 | 66 | 1042.5 |
| 20260507060438 | 65 | 86 | 0.0 | 0.0 | 0.00 | 0.00 | 0.00 | 68 | 1042.5 |
| 20260507055618 | 64 | 45 | 0.0 | 0.0 | 0.00 | 0.00 | 0.00 | 70 | 1042.5 |
| 20260507054758 | 63 | 45 | 0.0 | 0.0 | 0.00 | 0.00 | 0.00 | 72 | 1042.5 |
| 20260507053938 | 62 | 112 | 0.0 | 0.0 | 0.00 | 0.00 | 0.00 | 74 | 1042.5 |
| 20260507053118 | 61 | 112 | 0.0 | 0.0 | 0.00 | 0.00 | 0.00 | 75 | 1042.5 |
| 20260507052258 | 59 | 114 | 0.0 | 0.0 | 0.00 | 0.00 | 0.00 | 79 | 1042.5 |
| 20260507051438 | 57 | 135 | 0.0 | 0.0 | 0.00 | 0.00 | 0.00 | 80 | 1042.5 |
| 20260507050618 | 56 | 135 | 0.0 | 0.0 | 0.00 | 0.00 | 0.00 | 80 | 1042.5 |
| 20260507045758 | 56 | 135 | 0.0 | 0.0 | 0.00 | 0.00 | 0.00 | 80 | 1042.5 |
| 20260507044938 | 56 | 135 | 0.0 | 0.0 | 0.00 | 0.00 | 0.00 | 81 | 1042.5 |
| 20260507044118 | 56 | 135 | 0.0 | 0.0 | 0.00 | 0.00 | 0.00 | 81 | 1042.5 |
| 20260507043258 | 56 | 135 | 0.0 | 0.0 | 0.00 | 0.00 | 0.00 | 82 | 1042.5 |
| 20260507042438 | 56 | 135 | 0.0 | 0.0 | 0.00 | 0.00 | 0.00 | 82 | 1042.5 |
| 20260507041618 | 55 | 135 | 0.0 | 0.0 | 0.00 | 0.00 | 0.00 | 81 | 1042.5 |
| 20260507040758 | 55 | 135 | 0.0 | 0.0 | 0.00 | 0.00 | 0.00 | 83 | 1042.5 |
| 20260507035938 | 54 | 135 | 0.0 | 0.0 | 0.00 | 0.00 | 0.00 | 83 | 1042.5 |
| 20260507035118 | 53 | 135 | 0.0 | 0.0 | 0.00 | 0.00 | 0.00 | 84 | 1042.5 |
| 20260507034258 | 53 | 135 | 0.0 | 0.0 | 0.00 | 0.00 | 0.00 | 84 | 1042.5 |
| 20260507033438 | 53 | 135 | 0.0 | 0.0 | 0.00 | 0.00 | 0.00 | 84 | 1042.5 |
| 20260507032618 | 52 | 135 | 0.0 | 0.0 | 0.00 | 0.00 | 0.00 | 85 | 1042.5 |
| 20260507031758 | 52 | 135 | 0.0 | 0.0 | 0.00 | 0.00 | 0.00 | 84 | 1042.5 |
| 20260507030938 | 52 | 135 | 0.0 | 0.0 | 0.00 | 0.00 | 0.00 | 84 | 1042.5 |
| 20260507030118 | 52 | 135 | 0.0 | 0.0 | 0.00 | 0.00 | 0.00 | 84 | 1042.5 |
| 20260507025258 | 52 | 135 | 0.0 | 0.0 | 0.00 | 0.00 | 0.00 | 84 | 1042.5 |
| 20260507024438 | 52 | 135 | 0.0 | 0.0 | 0.00 | 0.00 | 0.00 | 83 | 1042.5 |
| 20260507023618 | 53 | 135 | 0.0 | 0.0 | 0.00 | 0.00 | 0.00 | 84 | 1042.5 |
| 20260507022758 | 53 | 135 | 0.0 | 0.0 | 0.00 | 0.00 | 0.00 | 83 | 1042.5 |
| 20260507021938 | 53 | 135 | 0.0 | 0.0 | 0.00 | 0.00 | 0.00 | 83 | 1042.5 |
| 20260507021118 | 53 | 135 | 0.0 | 0.0 | 0.00 | 0.00 | 0.00 | 84 | 1042.5 |
| 20260507020258 | 53 | 135 | 0.0 | 0.0 | 0.00 | 0.00 | 0.00 | 83 | 1042.5 |
| 20260507015438 | 53 | 135 | 0.0 | 0.0 | 0.00 | 0.00 | 0.00 | 83 | 1042.5 |
| 20260507014618 | 53 | 135 | 0.0 | 0.0 | 0.00 | 0.00 | 0.00 | 82 | 1042.5 |
| 20260507013757 | 54 | 135 | 0.0 | 0.0 | 0.00 | 0.00 | 0.00 | 82 | 1042.5 |
| 20260507012937 | 54 | 135 | 0.0 | 0.0 | 0.00 | 0.00 | 0.00 | 82 | 1042.5 |
| 20260507012117 | 53 | 135 | 0.0 | 0.0 | 0.00 | 0.00 | 0.00 | 82 | 1042.5 |
| 20260507011257 | 53 | 135 | 0.0 | 0.0 | 0.00 | 0.00 | 0.00 | 82 | 1042.5 |
| 20260507010437 | 53 | 135 | 0.0 | 0.0 | 0.00 | 0.00 | 0.00 | 82 | 1042.5 |
| 20260507005617 | 54 | 135 | 0.0 | 0.0 | 0.00 | 0.00 | 0.00 | 82 | 1042.5 |
| 20260507004757 | 54 | 135 | 0.0 | 0.0 | 0.00 | 0.00 | 0.00 | 81 | 1042.5 |
| 20260507003937 | 54 | 135 | 0.0 | 0.0 | 0.00 | 0.00 | 0.00 | 81 | 1042.5 |
| 20260507003117 | 54 | 135 | 0.0 | 0.0 | 0.00 | 0.00 | 0.00 | 81 | 1042.5 |
| 20260507002257 | 54 | 135 | 0.0 | 0.0 | 0.00 | 0.00 | 0.00 | 81 | 1042.5 |
| 20260507001437 | 54 | 135 | 0.0 | 0.0 | 0.00 | 0.00 | 0.00 | 80 | 1042.5 |
| 20260507000617 | 55 | 135 | 0.0 | 0.0 | 0.00 | 0.00 | 0.00 | 78 | 1042.5 |
| 20260506235757 | 56 | 135 | 0.0 | 0.0 | 0.00 | 0.00 | 0.00 | 77 | 1042.5 |
| 20260506234937 | 56 | 135 | 0.0 | 0.0 | 0.00 | 0.00 | 0.00 | 77 | 1042.5 |
| 20260506234117 | 56 | 135 | 0.0 | 0.0 | 0.00 | 0.00 | 0.00 | 77 | 1042.5 |
| 20260506233257 | 56 | 135 | 0.0 | 0.0 | 0.00 | 0.00 | 0.00 | 77 | 1042.5 |
| 20260506232437 | 56 | 135 | 0.0 | 0.0 | 0.00 | 0.00 | 0.00 | 75 | 1042.5 |
| 20260506231617 | 56 | 135 | 0.0 | 0.0 | 0.00 | 0.00 | 0.00 | 75 | 1042.5 |
| 20260506230757 | 57 | 135 | 0.0 | 0.0 | 0.00 | 0.00 | 0.00 | 74 | 1042.5 |
| 20260506225937 | 57 | 135 | 0.0 | 0.0 | 0.00 | 0.00 | 0.00 | 72 | 1042.5 |
| 20260506225117 | 58 | 135 | 0.0 | 0.0 | 0.00 | 0.00 | 0.00 | 70 | 1042.5 |
| 20260506224257 | 59 | 135 | 0.0 | 0.0 | 0.00 | 0.00 | 0.00 | 70 | 1042.5 |
| 20260506223437 | 59 | 135 | 0.0 | 0.0 | 0.00 | 0.00 | 0.00 | 69 | 1042.5 |
| 20260506222617 | 59 | 158 | 0.0 | 0.0 | 0.00 | 0.00 | 0.00 | 70 | 1042.5 |
| 20260506221757 | 58 | 109 | 0.0 | 0.0 | 0.00 | 0.00 | 0.00 | 71 | 1042.5 |
| 20260506220937 | 58 | 90 | 0.0 | 0.0 | 0.00 | 0.00 | 0.00 | 71 | 1042.5 |